POPACS 3

Last updated on Tue Oct 14 2025 00:03:48 GMT+0000 (Coordinated Universal Time)

1 39270U 13055F 25286.57341764 .00013397 00000+0 32930-3 0 9997 2 39270 81.0015 135.4856 0574830 98.1965 268.4810 14.50455836602733
UTC large
Height (km)
Speed (km/s)
/
Latitude / Longitude
Inclination (degrees)
Orbital Period (minutes)
Azimuth
Elevation
Range (km)
Doppler Factor

Next 0 passes for location: London (51.5072 / 0.1276)

Sorry there are no passes over London.